Time,TemperatureF,DewpointF,PressureIn,WindDirection,WindDirectionDegrees,WindSpeedMPH,WindSpeedGustMPH,Humidity,HourlyPrecipIn,Conditions,Clouds,dailyrainin,SoftwareType,DateUTC
2013-01-20 00:00:00,68.0,63.3,30.02,NNW,338,0.0,0.0,85,0.00,RA,,0.00,WeatherDisplay:10.37,2013-01-20 05:00:00,
2013-01-20 00:01:00,68.0,63.3,30.02,NNW,338,0.0,0.0,85,0.00,RA,,0.00,WeatherDisplay:10.37,2013-01-20 05:01:00,
2013-01-20 00:03:00,67.8,63.1,30.02,NNW,338,0.0,0.0,85,0.00,RA,,0.00,WeatherDisplay:10.37,2013-01-20 05:03:00,
2013-01-20 00:08:00,67.8,63.1,30.02,North,0,0.0,0.0,85,0.00,RA,,0.00,WeatherDisplay:10.37,2013-01-20 05:08:00,
2013-01-20 00:13:00,67.6,63.0,30.02,NW,315,0.0,0.0,85,0.00,CLR,,0.00,WeatherDisplay:10.37,2013-01-20 05:13:00,
2013-01-20 00:18:00,67.8,63.1,30.02,NNE,22,0.0,0.0,85,0.00,CLR,,0.00,WeatherDisplay:10.37,2013-01-20 05:18:00,
2013-01-20 00:23:00,67.6,63.0,30.02,NNW,338,0.0,0.0,85,0.00,CLR,,0.00,WeatherDisplay:10.37,2013-01-20 05:23:00,
2013-01-20 00:28:00,67.6,63.0,30.01,North,0,0.0,0.0,85,0.00,CLR,,0.00,WeatherDisplay:10.37,2013-01-20 05:28:00,
2013-01-20 00:33:00,67.5,62.8,30.01,West,270,0.0,0.0,85,0.00,CLR,,0.00,WeatherDisplay:10.37,2013-01-20 05:33:00,
2013-01-20 00:38:00,67.5,62.8,30.01,NW,315,0.0,0.0,85,0.00,CLR,,0.00,WeatherDisplay:10.37,2013-01-20 05:38:00,
2013-01-20 00:43:00,67.3,62.6,30.01,NW,315,0.0,0.0,85,0.00,CLR,,0.00,WeatherDisplay:10.37,2013-01-20 05:43:00,
2013-01-20 00:48:00,67.3,62.6,30.00,West,270,0.0,0.0,85,0.00,CLR,,0.00,WeatherDisplay:10.37,2013-01-20 05:48:00,
2013-01-20 00:53:00,67.5,62.8,30.00,West,270,0.0,0.0,85,0.00,CLR,,0.00,WeatherDisplay:10.37,2013-01-20 05:53:00,
2013-01-20 00:58:00,67.5,62.8,30.00,NNW,338,0.0,0.0,85,0.00,CLR,,0.00,WeatherDisplay:10.37,2013-01-20 05:58:00,
2013-01-20 01:03:00,67.3,62.6,30.00,NNE,22,0.0,0.0,85,0.00,CLR,,0.00,WeatherDisplay:10.37,2013-01-20 06:03:00,
2013-01-20 01:08:00,67.3,62.6,30.01,NNW,338,0.0,0.0,85,0.00,CLR,,0.00,WeatherDisplay:10.37,2013-01-20 06:08:00,
2013-01-20 01:13:00,67.1,62.4,30.01,West,270,0.0,0.0,85,0.00,CLR,,0.00,WeatherDisplay:10.37,2013-01-20 06:13:00,
2013-01-20 01:18:00,67.1,62.4,30.01,SW,225,0.0,0.0,85,0.00,CLR,,0.00,WeatherDisplay:10.37,2013-01-20 06:18:00,
2013-01-20 01:23:00,66.9,62.3,30.01,NNE,22,0.0,0.0,85,0.00,CLR,,0.00,WeatherDisplay:10.37,2013-01-20 06:23:00,
2013-01-20 01:28:00,67.1,62.4,30.01,NE,45,0.0,0.0,85,0.00,CLR,,0.00,WeatherDisplay:10.37,2013-01-20 06:28:00,
2013-01-20 01:33:00,67.1,62.4,30.01,NNW,338,0.0,0.0,85,0.00,CLR,,0.00,WeatherDisplay:10.37,2013-01-20 06:33:00,
2013-01-20 01:38:00,67.1,62.4,30.01,NNE,22,0.0,0.0,85,0.00,CLR,,0.00,WeatherDisplay:10.37,2013-01-20 06:38:00,
2013-01-20 01:43:00,67.1,62.4,30.01,NNE,22,0.0,0.0,85,0.00,CLR,,0.00,WeatherDisplay:10.37,2013-01-20 06:43:00,
2013-01-20 01:48:00,67.1,62.4,30.00,North,0,0.0,0.0,85,0.00,CLR,,0.00,WeatherDisplay:10.37,2013-01-20 06:48:00,
2013-01-20 01:53:00,66.9,62.3,30.00,NW,315,0.0,0.0,85,0.00,CLR,,0.00,WeatherDisplay:10.37,2013-01-20 06:53:00,
2013-01-20 01:58:00,66.7,62.1,30.00,NNE,22,0.0,0.0,85,0.00,CLR,,0.00,WeatherDisplay:10.37,2013-01-20 06:58:00,
2013-01-20 02:03:00,66.7,62.1,30.00,NW,315,0.0,0.0,85,0.00,CLR,,0.00,WeatherDisplay:10.37,2013-01-20 07:03:00,
2013-01-20 02:08:00,66.7,62.1,30.00,North,0,0.0,0.0,85,0.00,CLR,,0.00,WeatherDisplay:10.37,2013-01-20 07:08:00,
2013-01-20 02:13:00,66.7,62.1,30.00,NW,315,0.0,0.0,85,0.00,CLR,,0.00,WeatherDisplay:10.37,2013-01-20 07:13:00,
2013-01-20 02:18:00,66.7,62.1,30.00,NNE,22,0.0,0.0,85,0.00,CLR,,0.00,WeatherDisplay:10.37,2013-01-20 07:18:00,
2013-01-20 02:23:00,66.6,61.9,30.00,North,0,0.0,0.0,85,0.00,CLR,,0.00,WeatherDisplay:10.37,2013-01-20 07:23:00,
2013-01-20 02:28:00,66.6,61.9,29.99,NNE,22,0.0,0.0,85,0.00,CLR,,0.00,WeatherDisplay:10.37,2013-01-20 07:28:00,
2013-01-20 02:33:00,66.6,61.9,29.99,NNE,22,0.0,0.0,85,0.00,CLR,,0.00,WeatherDisplay:10.37,2013-01-20 07:33:00,
2013-01-20 02:38:00,66.7,62.1,29.99,NNW,338,0.0,0.0,85,0.00,CLR,,0.00,WeatherDisplay:10.37,2013-01-20 07:38:00,
2013-01-20 02:43:00,66.6,61.9,29.99,NNE,22,0.0,0.0,85,0.00,CLR,,0.00,WeatherDisplay:10.37,2013-01-20 07:43:00,
2013-01-20 02:48:00,66.6,61.9,29.99,NNE,22,0.0,0.0,85,0.00,CLR,,0.00,WeatherDisplay:10.37,2013-01-20 07:48:00,
2013-01-20 02:53:00,66.6,61.9,29.99,NNE,22,0.0,0.0,85,0.00,CLR,,0.00,WeatherDisplay:10.37,2013-01-20 07:53:00,
2013-01-20 02:58:00,66.6,61.9,29.99,NW,315,0.0,0.0,85,0.00,CLR,,0.00,WeatherDisplay:10.37,2013-01-20 07:58:00,
2013-01-20 03:03:00,66.6,61.9,29.99,WSW,248,0.0,0.0,85,0.00,CLR,,0.00,WeatherDisplay:10.37,2013-01-20 08:03:00,
2013-01-20 03:08:00,66.4,61.7,29.99,NNE,22,0.0,0.0,85,0.00,CLR,,0.00,WeatherDisplay:10.37,2013-01-20 08:08:00,
2013-01-20 03:13:00,66.4,61.7,29.99,NNE,22,0.0,0.0,85,0.00,CLR,,0.00,WeatherDisplay:10.37,2013-01-20 08:13:00,
2013-01-20 03:18:00,66.4,61.7,29.99,North,0,0.0,0.0,85,0.00,CLR,,0.00,WeatherDisplay:10.37,2013-01-20 08:18:00,
2013-01-20 03:23:00,66.4,61.7,29.99,NW,315,0.0,0.0,85,0.00,CLR,,0.00,WeatherDisplay:10.37,2013-01-20 08:23:00,
2013-01-20 03:28:00,66.4,61.7,30.00,NNE,22,0.0,0.0,85,0.00,CLR,,0.00,WeatherDisplay:10.37,2013-01-20 08:28:00,
2013-01-20 03:36:00,66.2,61.2,30.00,NNE,22,0.0,0.0,84,0.00,CLR,,0.00,WeatherDisplay:10.37,2013-01-20 08:36:00,
2013-01-20 03:41:00,66.2,61.2,30.00,NNE,22,0.0,0.0,84,0.00,CLR,,0.00,WeatherDisplay:10.37,2013-01-20 08:41:00,
2013-01-20 03:46:00,66.4,61.7,30.00,North,0,0.0,0.0,85,0.00,CLR,,0.00,WeatherDisplay:10.37,2013-01-20 08:46:00,
2013-01-20 03:51:00,66.4,61.7,29.99,NNE,22,0.0,0.0,85,0.00,CLR,,0.00,WeatherDisplay:10.37,2013-01-20 08:51:00,
2013-01-20 03:56:00,66.2,61.2,29.99,NNE,22,0.0,0.0,84,0.00,CLR,,0.00,WeatherDisplay:10.37,2013-01-20 08:56:00,
2013-01-20 04:01:00,66.0,61.0,29.99,NNE,22,0.0,0.0,84,0.00,CLR,,0.00,WeatherDisplay:10.37,2013-01-20 09:01:00,
2013-01-20 04:06:00,66.0,61.0,29.99,NNE,22,0.0,0.0,84,0.00,CLR,,0.00,WeatherDisplay:10.37,2013-01-20 09:06:00,
2013-01-20 04:11:00,65.8,60.9,29.99,NNW,338,0.0,0.0,84,0.00,CLR,,0.00,WeatherDisplay:10.37,2013-01-20 09:11:00,
2013-01-20 04:16:00,65.8,60.9,29.99,NW,315,0.0,0.0,84,0.00,CLR,,0.00,WeatherDisplay:10.37,2013-01-20 09:16:00,
2013-01-20 04:21:00,66.0,61.0,29.99,NNE,22,1.1,0.0,84,0.00,CLR,,0.00,WeatherDisplay:10.37,2013-01-20 09:21:00,
2013-01-20 04:26:00,66.0,61.0,29.99,North,0,0.0,0.0,84,0.00,CLR,,0.00,WeatherDisplay:10.37,2013-01-20 09:26:00,
2013-01-20 04:31:00,66.0,61.0,29.99,NNE,22,0.0,0.0,84,0.00,CLR,,0.00,WeatherDisplay:10.37,2013-01-20 09:31:00,
2013-01-20 04:36:00,66.0,61.0,29.99,NNE,22,0.0,0.0,84,0.00,CLR,,0.00,WeatherDisplay:10.37,2013-01-20 09:36:00,
2013-01-20 04:41:00,66.0,61.0,29.99,NNE,22,0.0,0.0,84,0.00,CLR,,0.00,WeatherDisplay:10.37,2013-01-20 09:41:00,
2013-01-20 04:46:00,66.0,61.4,29.99,NNW,338,0.0,0.0,85,0.00,CLR,,0.00,WeatherDisplay:10.37,2013-01-20 09:46:00,
2013-01-20 04:51:00,66.0,61.4,29.99,North,0,0.0,0.0,85,0.00,CLR,,0.00,WeatherDisplay:10.37,2013-01-20 09:51:00,
2013-01-20 04:56:00,66.4,61.7,29.99,North,0,0.0,0.0,85,0.00,CLR,,0.00,WeatherDisplay:10.37,2013-01-20 09:56:00,
2013-01-20 05:01:00,66.4,61.7,29.99,NNE,22,0.0,0.0,85,0.00,CLR,,0.00,WeatherDisplay:10.37,2013-01-20 10:01:00,
2013-01-20 05:06:00,66.4,61.7,29.99,NNE,22,0.0,0.0,85,0.00,CLR,,0.00,WeatherDisplay:10.37,2013-01-20 10:06:00,
2013-01-20 05:11:00,66.2,61.6,29.99,NNE,22,0.0,0.0,85,0.00,CLR,,0.00,WeatherDisplay:10.37,2013-01-20 10:11:00,
2013-01-20 05:16:00,66.2,61.6,29.99,North,0,0.0,0.1,85,0.00,CLR,,0.00,WeatherDisplay:10.37,2013-01-20 10:16:00,
2013-01-20 05:21:00,66.2,61.6,29.99,NW,315,2.3,2.3,85,0.00,CLR,,0.00,WeatherDisplay:10.37,2013-01-20 10:21:00,
2013-01-20 05:26:00,66.4,61.7,30.00,NNW,338,0.0,0.2,85,0.00,CLR,,0.00,WeatherDisplay:10.37,2013-01-20 10:26:00,
2013-01-20 05:31:00,66.4,61.7,30.00,NNE,22,0.0,0.2,85,0.00,CLR,,0.00,WeatherDisplay:10.37,2013-01-20 10:31:00,
2013-01-20 05:36:00,66.2,61.6,30.00,North,0,0.0,0.1,85,0.00,CLR,,0.00,WeatherDisplay:10.37,2013-01-20 10:36:00,
2013-01-20 05:42:00,66.2,61.6,30.00,North,0,0.0,0.0,85,0.00,CLR,,0.00,WeatherDisplay:10.37,2013-01-20 10:42:00,
2013-01-20 05:47:00,66.4,61.7,30.00,NNE,22,0.0,0.0,85,0.00,CLR,,0.00,WeatherDisplay:10.37,2013-01-20 10:47:00,
2013-01-20 05:52:00,66.4,61.7,30.00,ENE,68,0.0,0.0,85,0.00,CLR,,0.00,WeatherDisplay:10.37,2013-01-20 10:52:00,
2013-01-20 05:57:00,66.2,61.9,30.00,NNE,22,0.0,0.0,86,0.00,CLR,,0.00,WeatherDisplay:10.37,2013-01-20 10:57:00,
2013-01-20 06:02:00,66.4,62.1,30.00,North,0,0.0,0.0,86,0.00,CLR,,0.00,WeatherDisplay:10.37,2013-01-20 11:02:00,
2013-01-20 06:07:00,66.4,62.1,30.00,NNE,22,0.0,0.0,86,0.03,RA,,0.03,WeatherDisplay:10.37,2013-01-20 11:07:00,
2013-01-20 06:12:00,66.4,62.1,30.00,NNE,22,0.0,0.0,86,0.03,RA,,0.03,WeatherDisplay:10.37,2013-01-20 11:12:00,
2013-01-20 06:17:00,66.4,62.1,30.00,NNW,338,0.0,0.0,86,0.03,,,0.03,WeatherDisplay:10.37,2013-01-20 11:17:00,
2013-01-20 06:22:00,66.6,62.2,30.00,North,0,0.0,0.1,86,0.03,CLR,,0.03,WeatherDisplay:10.37,2013-01-20 11:22:00,
2013-01-20 06:27:00,66.7,62.4,30.01,West,270,0.0,0.1,86,0.03,CLR,,0.03,WeatherDisplay:10.37,2013-01-20 11:27:00,
2013-01-20 06:32:00,66.7,62.4,30.01,SW,225,0.0,0.0,86,0.03,CLR,,0.03,WeatherDisplay:10.37,2013-01-20 11:32:00,
2013-01-20 06:37:00,66.6,62.2,30.01,NNW,338,1.1,1.1,86,0.03,CLR,,0.03,WeatherDisplay:10.37,2013-01-20 11:37:00,
2013-01-20 06:42:00,66.6,62.2,30.01,WNW,292,0.0,0.1,86,0.03,CLR,,0.03,WeatherDisplay:10.37,2013-01-20 11:42:00,
2013-01-20 06:47:00,66.7,62.4,30.01,West,270,0.0,0.1,86,0.03,CLR,,0.03,WeatherDisplay:10.37,2013-01-20 11:47:00,
2013-01-20 06:52:00,66.7,62.4,30.01,NW,315,0.0,0.0,86,0.03,CLR,,0.03,WeatherDisplay:10.37,2013-01-20 11:52:00,
2013-01-20 06:57:00,66.9,62.6,30.01,NNE,22,1.1,1.1,86,0.03,CLR,,0.03,WeatherDisplay:10.37,2013-01-20 11:57:00,
2013-01-20 07:02:00,66.9,62.6,30.01,NW,315,0.0,0.2,86,0.03,CLR,,0.03,WeatherDisplay:10.37,2013-01-20 12:02:00,
2013-01-20 07:07:00,67.1,62.8,30.01,NNE,22,0.0,0.2,86,0.00,CLR,,0.03,WeatherDisplay:10.37,2013-01-20 12:07:00,
2013-01-20 07:12:00,66.9,62.6,30.01,NNW,338,0.0,0.2,86,0.00,CLR,,0.03,WeatherDisplay:10.37,2013-01-20 12:12:00,
2013-01-20 07:17:00,66.9,62.6,30.01,NW,315,0.0,0.2,86,0.00,CLR,,0.03,WeatherDisplay:10.37,2013-01-20 12:17:00,
2013-01-20 07:22:00,67.1,62.8,30.01,NNE,22,0.0,0.1,86,0.00,CLR,,0.03,WeatherDisplay:10.37,2013-01-20 12:22:00,
2013-01-20 07:27:00,66.9,62.6,30.02,NNE,22,0.0,0.0,86,0.00,CLR,,0.03,WeatherDisplay:10.37,2013-01-20 12:27:00,
2013-01-20 07:33:00,67.1,62.8,30.02,NW,315,0.0,0.0,86,0.00,CLR,,0.03,WeatherDisplay:10.37,2013-01-20 12:33:00,
2013-01-20 07:38:00,67.1,62.8,30.02,West,270,0.0,0.0,86,0.00,CLR,,0.03,WeatherDisplay:10.37,2013-01-20 12:38:00,
2013-01-20 07:43:00,67.3,62.9,30.02,NW,315,0.0,0.0,86,0.00,CLR,,0.03,WeatherDisplay:10.37,2013-01-20 12:43:00,
2013-01-20 07:48:00,67.3,62.9,30.02,North,0,0.0,0.0,86,0.00,CLR,,0.03,WeatherDisplay:10.37,2013-01-20 12:48:00,
2013-01-20 07:53:00,67.5,63.1,30.02,WSW,248,0.0,0.0,86,0.00,CLR,,0.03,WeatherDisplay:10.37,2013-01-20 12:53:00,
2013-01-20 07:58:00,67.8,63.5,30.02,NW,315,0.0,0.0,86,0.00,CLR,,0.03,WeatherDisplay:10.37,2013-01-20 12:58:00,
2013-01-20 08:03:00,68.0,63.7,30.02,NNW,338,0.0,0.0,86,0.00,CLR,,0.03,WeatherDisplay:10.37,2013-01-20 13:03:00,
2013-01-20 08:08:00,68.2,63.8,30.03,NW,315,0.0,0.0,86,0.00,CLR,,0.03,WeatherDisplay:10.37,2013-01-20 13:08:00,
2013-01-20 08:13:00,68.5,64.2,30.03,WNW,292,0.0,0.0,86,0.00,CLR,,0.03,WeatherDisplay:10.37,2013-01-20 13:13:00,
2013-01-20 08:18:00,68.7,64.4,30.03,West,270,0.0,0.0,86,0.00,CLR,,0.03,WeatherDisplay:10.37,2013-01-20 13:18:00,
2013-01-20 08:23:00,68.7,64.4,30.03,ENE,68,1.1,1.1,86,0.00,CLR,,0.03,WeatherDisplay:10.37,2013-01-20 13:23:00,
2013-01-20 08:28:00,69.1,64.7,30.03,WNW,292,0.0,0.2,86,0.00,CLR,,0.03,WeatherDisplay:10.37,2013-01-20 13:28:00,
2013-01-20 08:33:00,69.1,64.7,30.03,NW,315,0.0,0.0,86,0.00,CLR,,0.03,WeatherDisplay:10.37,2013-01-20 13:33:00,
2013-01-20 08:38:00,69.4,65.1,30.03,NNW,338,1.1,1.1,86,0.00,CLR,,0.03,WeatherDisplay:10.37,2013-01-20 13:38:00,
2013-01-20 08:43:00,69.4,65.1,30.03,NNE,22,1.1,1.1,86,0.00,CLR,,0.03,WeatherDisplay:10.37,2013-01-20 13:43:00,
2013-01-20 08:48:00,70.0,65.3,30.03,NNW,338,1.1,1.1,85,0.00,CLR,,0.03,WeatherDisplay:10.37,2013-01-20 13:48:00,
2013-01-20 08:53:00,70.2,65.4,30.03,West,270,0.0,0.2,85,0.00,CLR,,0.03,WeatherDisplay:10.37,2013-01-20 13:53:00,
2013-01-20 08:58:00,70.3,65.6,30.03,West,270,2.3,2.3,85,0.00,CLR,,0.03,WeatherDisplay:10.37,2013-01-20 13:58:00,
2013-01-20 09:03:00,70.7,66.0,30.03,NW,315,0.0,0.3,85,0.00,CLR,,0.03,WeatherDisplay:10.37,2013-01-20 14:03:00,
2013-01-20 09:08:00,70.7,66.0,30.04,NNW,338,0.0,0.1,85,0.00,CLR,,0.03,WeatherDisplay:10.37,2013-01-20 14:08:00,
2013-01-20 09:13:00,70.9,66.1,30.04,NNW,338,1.1,1.1,85,0.00,CLR,,0.03,WeatherDisplay:10.37,2013-01-20 14:13:00,
2013-01-20 09:18:00,71.1,66.3,30.04,West,270,0.0,0.5,85,0.00,CLR,,0.03,WeatherDisplay:10.37,2013-01-20 14:18:00,
2013-01-20 09:23:00,71.4,66.7,30.04,NW,315,2.3,2.3,85,0.00,CLR,,0.03,WeatherDisplay:10.37,2013-01-20 14:23:00,
2013-01-20 09:28:00,71.6,66.8,30.04,WNW,292,0.0,0.5,85,0.00,CLR,,0.03,WeatherDisplay:10.37,2013-01-20 14:28:00,
2013-01-20 09:33:00,71.8,66.7,30.04,NW,315,0.0,0.3,84,0.00,CLR,,0.03,WeatherDisplay:10.37,2013-01-20 14:33:00,
2013-01-20 09:38:00,72.0,66.9,30.04,NNE,22,0.0,0.3,84,0.00,CLR,,0.03,WeatherDisplay:10.37,2013-01-20 14:38:00,
2013-01-20 09:43:00,72.1,67.0,30.04,WSW,248,0.0,0.3,84,0.00,CLR,,0.03,WeatherDisplay:10.37,2013-01-20 14:43:00,
2013-01-20 09:48:00,72.5,67.4,30.04,NW,315,0.0,0.6,84,0.00,CLR,,0.03,WeatherDisplay:10.37,2013-01-20 14:48:00,
2013-01-20 09:53:00,72.5,67.4,30.04,NW,315,2.3,2.3,84,0.00,CLR,,0.03,WeatherDisplay:10.37,2013-01-20 14:53:00,
2013-01-20 09:58:00,72.9,67.4,30.04,NW,315,1.1,1.1,83,0.00,CLR,,0.03,WeatherDisplay:10.37,2013-01-20 14:58:00,
2013-01-20 10:03:00,72.9,67.4,30.04,West,270,2.3,2.3,83,0.00,CLR,,0.03,WeatherDisplay:10.37,2013-01-20 15:03:00,
2013-01-20 10:08:00,73.2,67.7,30.04,North,0,2.3,2.3,83,0.00,CLR,,0.03,WeatherDisplay:10.37,2013-01-20 15:08:00,
2013-01-20 10:13:00,73.6,67.7,30.04,NW,315,3.5,3.5,82,0.00,CLR,,0.03,WeatherDisplay:10.37,2013-01-20 15:13:00,
2013-01-20 10:18:00,73.8,67.6,30.04,NNW,338,2.3,2.3,81,0.00,CLR,,0.03,WeatherDisplay:10.37,2013-01-20 15:18:00,
2013-01-20 10:23:00,73.8,67.2,30.04,NNE,22,2.3,2.3,80,0.00,CLR,,0.03,WeatherDisplay:10.37,2013-01-20 15:23:00,
2013-01-20 10:28:00,74.3,67.7,30.04,NNW,338,2.3,2.3,80,0.00,CLR,,0.03,WeatherDisplay:10.37,2013-01-20 15:28:00,
2013-01-20 10:33:00,74.3,67.4,30.04,West,270,2.3,2.3,79,0.00,CLR,,0.03,WeatherDisplay:10.37,2013-01-20 15:33:00,
2013-01-20 10:38:00,74.3,67.4,30.04,North,0,0.0,1.0,79,0.00,CLR,,0.03,WeatherDisplay:10.37,2013-01-20 15:38:00,
2013-01-20 10:43:00,74.5,67.5,30.04,NNW,338,2.3,2.3,79,0.00,CLR,,0.03,WeatherDisplay:10.37,2013-01-20 15:43:00,
2013-01-20 10:48:00,74.7,67.3,30.04,WNW,292,1.1,1.1,78,0.00,CLR,,0.03,WeatherDisplay:10.37,2013-01-20 15:48:00,
2013-01-20 10:53:00,74.8,67.5,30.04,NW,315,2.3,2.3,78,0.00,CLR,,0.03,WeatherDisplay:10.37,2013-01-20 15:53:00,
2013-01-20 10:58:00,75.0,67.3,30.04,North,0,2.3,2.3,77,0.00,CLR,,0.03,WeatherDisplay:10.37,2013-01-20 15:58:00,
2013-01-20 11:03:00,75.2,67.5,30.04,NNW,338,0.0,0.7,77,0.00,CLR,,0.03,WeatherDisplay:10.37,2013-01-20 16:03:00,
2013-01-20 11:08:00,75.4,67.3,30.03,WNW,292,2.3,2.3,76,0.00,CLR,,0.03,WeatherDisplay:10.37,2013-01-20 16:08:00,
2013-01-20 11:13:00,75.7,67.6,30.03,NNE,22,0.0,0.8,76,0.00,CLR,,0.03,WeatherDisplay:10.37,2013-01-20 16:13:00,
2013-01-20 11:18:00,75.9,67.8,30.03,WNW,292,0.0,0.6,76,0.00,CLR,,0.03,WeatherDisplay:10.37,2013-01-20 16:18:00,
2013-01-20 11:23:00,75.7,67.2,30.03,North,0,1.1,1.1,75,0.00,CLR,,0.03,WeatherDisplay:10.37,2013-01-20 16:23:00,
2013-01-20 11:28:00,75.2,66.7,30.02,West,270,0.0,0.3,75,0.00,CLR,,0.03,WeatherDisplay:10.37,2013-01-20 16:28:00,
2013-01-20 11:33:00,75.0,66.6,30.02,NE,45,1.1,1.1,75,0.00,CLR,,0.03,WeatherDisplay:10.37,2013-01-20 16:33:00,
2013-01-20 11:38:00,75.9,66.6,30.02,SE,135,0.0,0.7,73,0.00,CLR,,0.03,WeatherDisplay:10.37,2013-01-20 16:38:00,
2013-01-20 11:43:00,76.5,67.6,30.02,NE,45,3.5,3.5,74,0.00,CLR,,0.03,WeatherDisplay:10.37,2013-01-20 16:43:00,
2013-01-20 11:48:00,76.6,67.3,30.00,ESE,112,3.5,3.5,73,0.00,CLR,,0.03,WeatherDisplay:10.37,2013-01-20 16:48:00,
2013-01-20 11:53:00,76.8,67.5,30.00,NNE,22,3.5,3.5,73,0.00,CLR,,0.03,WeatherDisplay:10.37,2013-01-20 16:53:00,
2013-01-20 11:58:00,76.8,67.9,30.00,NNE,22,4.6,4.6,74,0.00,CLR,,0.03,WeatherDisplay:10.37,2013-01-20 16:58:00,
2013-01-20 12:03:00,77.0,67.7,30.00,NNE,22,4.6,4.6,73,0.00,CLR,,0.03,WeatherDisplay:10.37,2013-01-20 17:03:00,
2013-01-20 12:09:00,77.0,67.7,30.00,NNE,22,2.3,2.5,73,0.00,CLR,,0.03,WeatherDisplay:10.37,2013-01-20 17:09:00,
2013-01-20 12:14:00,77.4,68.0,30.00,North,0,3.5,3.5,73,0.00,CLR,,0.03,WeatherDisplay:10.37,2013-01-20 17:14:00,
2013-01-20 12:19:00,77.4,68.0,30.00,ESE,112,2.3,2.3,73,0.00,CLR,,0.03,WeatherDisplay:10.37,2013-01-20 17:19:00,
2013-01-20 12:24:00,77.5,68.2,30.00,NE,45,2.3,2.3,73,0.00,CLR,,0.03,WeatherDisplay:10.37,2013-01-20 17:24:00,
2013-01-20 12:29:00,77.5,67.8,29.99,SE,135,4.6,4.6,72,0.00,CLR,,0.03,WeatherDisplay:10.37,2013-01-20 17:29:00,
2013-01-20 12:34:00,77.5,67.8,29.99,NE,45,3.5,3.5,72,0.00,CLR,,0.03,WeatherDisplay:10.37,2013-01-20 17:34:00,
2013-01-20 12:39:00,77.5,67.8,29.99,ESE,112,2.3,2.4,72,0.00,CLR,,0.03,WeatherDisplay:10.37,2013-01-20 17:39:00,
2013-01-20 12:44:00,77.7,68.0,29.99,NW,315,2.3,2.3,72,0.00,CLR,,0.03,WeatherDisplay:10.37,2013-01-20 17:44:00,
2013-01-20 12:49:00,77.5,67.8,29.98,NE,45,2.3,2.3,72,0.00,CLR,,0.03,WeatherDisplay:10.37,2013-01-20 17:49:00,
2013-01-20 12:54:00,77.9,67.7,29.98,NE,45,3.5,3.5,71,0.00,CLR,,0.03,WeatherDisplay:10.37,2013-01-20 17:54:00,
2013-01-20 12:59:00,77.9,67.7,29.98,NE,45,2.3,2.3,71,0.00,CLR,,0.03,WeatherDisplay:10.37,2013-01-20 17:59:00,
2013-01-20 13:04:00,77.9,67.7,29.98,WSW,248,2.3,2.3,71,0.00,CLR,,0.03,WeatherDisplay:10.37,2013-01-20 18:04:00,
2013-01-20 13:09:00,77.9,67.7,29.97,North,0,2.3,2.3,71,0.00,CLR,,0.03,WeatherDisplay:10.37,2013-01-20 18:09:00,
2013-01-20 13:14:00,77.9,67.7,29.97,ENE,68,2.3,2.3,71,0.00,CLR,,0.03,WeatherDisplay:10.37,2013-01-20 18:14:00,
2013-01-20 13:19:00,77.9,67.7,29.97,NNE,22,4.6,4.6,71,0.00,CLR,,0.03,WeatherDisplay:10.37,2013-01-20 18:19:00,
2013-01-20 13:24:00,77.9,68.1,29.97,West,270,4.6,4.6,72,0.00,CLR,,0.03,WeatherDisplay:10.37,2013-01-20 18:24:00,
2013-01-20 13:29:00,77.7,67.6,29.97,North,0,5.8,5.8,71,0.00,CLR,,0.03,WeatherDisplay:10.37,2013-01-20 18:29:00,
2013-01-20 13:34:00,77.5,67.4,29.97,ENE,68,2.3,3.1,71,0.00,CLR,,0.03,WeatherDisplay:10.37,2013-01-20 18:34:00,
2013-01-20 13:39:00,77.9,67.7,29.97,NNW,338,4.6,4.6,71,0.00,CLR,,0.03,WeatherDisplay:10.37,2013-01-20 18:39:00,
2013-01-20 13:44:00,77.9,67.7,29.97,NNE,22,2.3,2.5,71,0.00,CLR,,0.03,WeatherDisplay:10.37,2013-01-20 18:44:00,
2013-01-20 13:49:00,77.5,67.4,29.97,NNE,22,5.8,5.8,71,0.00,CLR,,0.03,WeatherDisplay:10.37,2013-01-20 18:49:00,
2013-01-20 13:54:00,77.4,67.2,29.97,East,90,4.6,4.6,71,0.00,CLR,,0.03,WeatherDisplay:10.37,2013-01-20 18:54:00,
2013-01-20 13:59:00,77.4,67.2,29.97,NNE,22,6.9,6.9,71,0.00,CLR,,0.03,WeatherDisplay:10.37,2013-01-20 18:59:00,
2013-01-20 14:04:00,77.2,67.0,29.97,North,0,3.5,3.5,71,0.00,CLR,,0.03,WeatherDisplay:10.37,2013-01-20 19:04:00,
2013-01-20 14:09:00,76.6,66.9,29.97,NNE,22,4.6,4.6,72,0.00,CLR,,0.03,WeatherDisplay:10.37,2013-01-20 19:09:00,
2013-01-20 14:14:00,76.8,67.1,29.97,East,90,3.5,3.5,72,0.00,CLR,,0.03,WeatherDisplay:10.37,2013-01-20 19:14:00,
2013-01-20 14:19:00,77.0,66.9,29.97,ENE,68,5.8,5.8,71,0.00,CLR,,0.03,WeatherDisplay:10.37,2013-01-20 19:19:00,
2013-01-20 14:24:00,77.4,67.2,29.97,NE,45,3.5,3.5,71,0.00,CLR,,0.03,WeatherDisplay:10.37,2013-01-20 19:24:00,
2013-01-20 14:29:00,77.5,67.4,29.96,ENE,68,4.6,4.6,71,0.00,CLR,,0.03,WeatherDisplay:10.37,2013-01-20 19:29:00,
2013-01-20 14:34:00,77.0,66.9,29.96,ENE,68,3.5,3.5,71,0.00,CLR,,0.03,WeatherDisplay:10.37,2013-01-20 19:34:00,
2013-01-20 14:39:00,76.8,66.7,29.96,NNE,22,4.6,4.6,71,0.00,CLR,,0.03,WeatherDisplay:10.37,2013-01-20 19:39:00,
2013-01-20 14:44:00,76.8,66.7,29.96,NE,45,2.3,2.3,71,0.00,CLR,,0.03,WeatherDisplay:10.37,2013-01-20 19:44:00,
2013-01-20 14:49:00,76.8,66.7,29.96,NNE,22,3.5,3.5,71,0.00,CLR,,0.03,WeatherDisplay:10.37,2013-01-20 19:49:00,
2013-01-20 14:54:00,76.6,66.5,29.96,NW,315,5.8,5.8,71,0.00,CLR,,0.03,WeatherDisplay:10.37,2013-01-20 19:54:00,
2013-01-20 14:59:00,76.5,66.4,29.96,NNE,22,3.5,3.5,71,0.00,CLR,,0.03,WeatherDisplay:10.37,2013-01-20 19:59:00,
2013-01-20 15:04:00,76.5,66.8,29.96,ENE,68,4.6,4.6,72,0.00,CLR,,0.03,WeatherDisplay:10.37,2013-01-20 20:04:00,
2013-01-20 15:09:00,76.6,66.9,29.97,NNE,22,5.8,5.8,72,0.00,CLR,,0.03,WeatherDisplay:10.37,2013-01-20 20:09:00,
2013-01-20 15:14:00,76.6,66.5,29.97,North,0,2.3,3.7,71,0.00,CLR,,0.03,WeatherDisplay:10.37,2013-01-20 20:14:00,
2013-01-20 15:19:00,76.5,66.4,29.97,SSW,202,4.6,4.6,71,0.00,CLR,,0.03,WeatherDisplay:10.37,2013-01-20 20:19:00,
2013-01-20 15:24:00,76.5,66.4,29.97,North,0,4.6,4.6,71,0.00,CLR,,0.03,WeatherDisplay:10.37,2013-01-20 20:24:00,
2013-01-20 15:29:00,76.5,66.8,29.98,NNE,22,4.6,4.6,72,0.00,CLR,,0.03,WeatherDisplay:10.37,2013-01-20 20:29:00,
2013-01-20 15:34:00,76.1,66.0,29.98,NNW,338,4.6,4.6,71,0.00,CLR,,0.03,WeatherDisplay:10.37,2013-01-20 20:34:00,
2013-01-20 15:39:00,76.1,66.4,29.98,NNE,22,4.6,4.6,72,0.00,CLR,,0.03,WeatherDisplay:10.37,2013-01-20 20:39:00,
2013-01-20 15:44:00,75.7,66.1,29.98,ENE,68,3.5,3.5,72,0.00,CLR,,0.03,WeatherDisplay:10.37,2013-01-20 20:44:00,
2013-01-20 15:49:00,75.7,66.1,29.99,NNE,22,3.5,3.5,72,0.00,CLR,,0.03,WeatherDisplay:10.37,2013-01-20 20:49:00,
2013-01-20 15:54:00,75.6,65.5,29.99,NNE,22,4.6,4.6,71,0.00,CLR,,0.03,WeatherDisplay:10.37,2013-01-20 20:54:00,
2013-01-20 15:59:00,75.7,66.1,29.99,NNE,22,2.3,2.8,72,0.00,CLR,,0.03,WeatherDisplay:10.37,2013-01-20 20:59:00,
2013-01-20 16:04:00,75.4,65.3,29.99,NE,45,4.6,4.6,71,0.00,CLR,,0.03,WeatherDisplay:10.37,2013-01-20 21:04:00,
2013-01-20 16:09:00,75.2,65.1,29.99,East,90,4.6,4.6,71,0.00,CLR,,0.03,WeatherDisplay:10.37,2013-01-20 21:09:00,
2013-01-20 16:14:00,75.2,65.1,29.99,NNW,338,4.6,4.6,71,0.00,CLR,,0.03,WeatherDisplay:10.37,2013-01-20 21:14:00,
2013-01-20 16:19:00,75.0,65.0,29.99,North,0,5.8,5.8,71,0.00,CLR,,0.03,WeatherDisplay:10.37,2013-01-20 21:19:00,
2013-01-20 16:24:00,74.8,65.2,29.99,NNW,338,5.8,5.8,72,0.00,CLR,,0.03,WeatherDisplay:10.37,2013-01-20 21:24:00,
2013-01-20 16:29:00,74.8,65.2,30.00,NNE,22,4.6,4.6,72,0.00,CLR,,0.03,WeatherDisplay:10.37,2013-01-20 21:29:00,
2013-01-20 16:34:00,74.7,65.0,30.00,NNW,338,2.3,3.1,72,0.00,CLR,,0.03,WeatherDisplay:10.37,2013-01-20 21:34:00,
2013-01-20 16:39:00,74.7,65.0,30.00,NNE,22,3.5,3.5,72,0.00,CLR,,0.03,WeatherDisplay:10.37,2013-01-20 21:39:00,
2013-01-20 16:44:00,74.7,65.0,30.00,NNW,338,4.6,4.6,72,0.00,CLR,,0.03,WeatherDisplay:10.37,2013-01-20 21:44:00,
2013-01-20 16:50:00,74.5,65.3,30.01,North,0,2.3,2.5,73,0.00,CLR,,0.03,WeatherDisplay:10.37,2013-01-20 21:50:00,
2013-01-20 16:55:00,74.7,65.4,30.01,ENE,68,5.8,5.8,73,0.00,CLR,,0.03,WeatherDisplay:10.37,2013-01-20 21:55:00,
2013-01-20 17:00:00,74.7,65.4,30.01,NNE,22,4.6,4.6,73,0.00,CLR,,0.03,WeatherDisplay:10.37,2013-01-20 22:00:00,
2013-01-20 17:05:00,74.3,65.5,30.01,ESE,112,2.3,2.6,74,0.00,CLR,,0.03,WeatherDisplay:10.37,2013-01-20 22:05:00,
2013-01-20 17:10:00,74.1,65.7,30.00,SSE,158,4.6,4.6,75,0.00,CLR,,0.03,WeatherDisplay:10.37,2013-01-20 22:10:00,
2013-01-20 17:15:00,73.9,65.5,30.00,North,0,1.1,2.1,75,0.00,CLR,,0.03,WeatherDisplay:10.37,2013-01-20 22:15:00,
2013-01-20 17:20:00,74.1,65.7,30.00,North,0,4.6,4.6,75,0.00,CLR,,0.03,WeatherDisplay:10.37,2013-01-20 22:20:00,
2013-01-20 17:25:00,73.8,65.7,30.00,ESE,112,2.3,2.3,76,0.00,CLR,,0.03,WeatherDisplay:10.37,2013-01-20 22:25:00,
2013-01-20 17:30:00,73.6,65.5,30.00,NE,45,4.6,4.6,76,0.00,CLR,,0.03,WeatherDisplay:10.37,2013-01-20 22:30:00,
2013-01-20 17:35:00,73.6,65.5,30.00,NNW,338,1.1,1.7,76,0.00,CLR,,0.03,WeatherDisplay:10.37,2013-01-20 22:35:00,
2013-01-20 17:40:00,73.6,65.5,30.00,NNE,22,2.3,2.3,76,0.00,CLR,,0.03,WeatherDisplay:10.37,2013-01-20 22:40:00,
2013-01-20 17:45:00,73.4,65.7,30.00,ENE,68,2.3,2.3,77,0.00,CLR,,0.03,WeatherDisplay:10.37,2013-01-20 22:45:00,
2013-01-20 17:50:00,73.6,65.9,30.00,NNE,22,1.1,1.4,77,0.00,CLR,,0.03,WeatherDisplay:10.37,2013-01-20 22:50:00,
2013-01-20 17:55:00,73.6,65.5,30.00,NNE,22,5.8,5.8,76,0.00,CLR,,0.03,WeatherDisplay:10.37,2013-01-20 22:55:00,
2013-01-20 18:00:00,73.6,65.5,30.00,WNW,292,4.6,4.6,76,0.00,CLR,,0.03,WeatherDisplay:10.37,2013-01-20 23:00:00,
2013-01-20 18:05:00,73.6,65.5,30.00,NNW,338,1.1,2.0,76,0.00,CLR,,0.03,WeatherDisplay:10.37,2013-01-20 23:05:00,
2013-01-20 18:10:00,73.4,65.4,30.00,North,0,3.5,3.5,76,0.00,CLR,,0.03,WeatherDisplay:10.37,2013-01-20 23:10:00,
2013-01-20 18:15:00,73.2,65.2,30.00,South,180,1.1,1.1,76,0.00,CLR,,0.03,WeatherDisplay:10.37,2013-01-20 23:15:00,
2013-01-20 18:20:00,73.2,65.6,30.00,NE,45,1.1,1.1,77,0.00,CLR,,0.03,WeatherDisplay:10.37,2013-01-20 23:20:00,
2013-01-20 18:25:00,73.2,65.2,30.00,NNW,338,3.5,3.5,76,0.00,CLR,,0.03,WeatherDisplay:10.37,2013-01-20 23:25:00,
2013-01-20 18:30:00,73.2,65.2,30.00,North,0,4.6,4.6,76,0.00,CLR,,0.03,WeatherDisplay:10.37,2013-01-20 23:30:00,
2013-01-20 18:35:00,73.2,65.2,30.00,NNE,22,2.3,2.3,76,0.00,CLR,,0.03,WeatherDisplay:10.37,2013-01-20 23:35:00,
2013-01-20 18:40:00,73.2,65.2,30.00,NNE,22,1.1,1.5,76,0.00,CLR,,0.03,WeatherDisplay:10.37,2013-01-20 23:40:00,
2013-01-20 18:45:00,73.2,64.8,30.00,ENE,68,3.5,3.5,75,0.00,CLR,,0.03,WeatherDisplay:10.37,2013-01-20 23:45:00,
2013-01-20 18:50:00,73.2,64.8,30.00,ENE,68,6.9,6.9,75,0.00,CLR,,0.03,WeatherDisplay:10.37,2013-01-20 23:50:00,
2013-01-20 18:55:00,73.4,65.0,30.00,North,0,2.3,2.3,75,0.00,CLR,,0.03,WeatherDisplay:10.37,2013-01-20 23:55:00,
2013-01-20 19:00:00,73.2,64.8,30.00,North,0,1.1,1.6,75,0.00,CLR,,0.03,WeatherDisplay:10.37,2013-01-21 00:00:00,
2013-01-20 19:05:00,73.2,64.8,30.00,North,0,2.3,2.3,75,0.00,CLR,,0.03,WeatherDisplay:10.37,2013-01-21 00:05:00,
2013-01-20 19:10:00,73.2,64.4,30.01,NE,45,2.3,2.3,74,0.00,CLR,,0.03,WeatherDisplay:10.37,2013-01-21 00:10:00,
2013-01-20 19:15:00,73.2,64.4,30.01,North,0,2.3,2.3,74,0.00,CLR,,0.03,WeatherDisplay:10.37,2013-01-21 00:15:00,
2013-01-20 19:20:00,73.4,64.6,30.01,NNE,22,2.3,2.3,74,0.00,CLR,,0.03,WeatherDisplay:10.37,2013-01-21 00:20:00,
2013-01-20 19:25:00,73.4,64.6,30.01,NNW,338,3.5,3.5,74,0.00,CLR,,0.03,WeatherDisplay:10.37,2013-01-21 00:25:00,
2013-01-20 19:30:00,73.2,64.4,30.00,NNW,338,2.3,2.3,74,0.00,CLR,,0.03,WeatherDisplay:10.37,2013-01-21 00:30:00,
2013-01-20 19:35:00,73.2,64.4,30.00,NNE,22,4.6,4.6,74,0.00,CLR,,0.03,WeatherDisplay:10.37,2013-01-21 00:35:00,
2013-01-20 19:40:00,73.2,64.4,30.00,NW,315,2.3,2.3,74,0.00,CLR,,0.03,WeatherDisplay:10.37,2013-01-21 00:40:00,
2013-01-20 19:45:00,73.4,64.6,30.00,NNE,22,2.3,2.3,74,0.00,CLR,,0.03,WeatherDisplay:10.37,2013-01-21 00:45:00,
2013-01-20 19:50:00,73.6,64.8,30.00,North,0,4.6,4.6,74,0.00,CLR,,0.03,WeatherDisplay:10.37,2013-01-21 00:50:00,
2013-01-20 19:55:00,73.6,64.8,30.00,ENE,68,2.3,2.3,74,0.00,CLR,,0.03,WeatherDisplay:10.37,2013-01-21 00:55:00,
2013-01-20 20:00:00,73.4,64.2,30.00,NE,45,2.3,2.3,73,0.00,CLR,,0.03,WeatherDisplay:10.37,2013-01-21 01:00:00,
2013-01-20 20:05:00,73.6,64.8,30.00,NNW,338,3.5,3.5,74,0.00,CLR,,0.03,WeatherDisplay:10.37,2013-01-21 01:05:00,
2013-01-20 20:10:00,73.6,64.8,30.01,NE,45,2.3,2.3,74,0.00,CLR,,0.03,WeatherDisplay:10.37,2013-01-21 01:10:00,
2013-01-20 20:15:00,73.8,65.0,30.01,NE,45,2.3,2.3,74,0.00,CLR,,0.03,WeatherDisplay:10.37,2013-01-21 01:15:00,
2013-01-20 20:20:00,73.6,64.8,30.01,NNE,22,0.0,1.6,74,0.00,CLR,,0.03,WeatherDisplay:10.37,2013-01-21 01:20:00,
2013-01-20 20:25:00,73.6,64.4,30.01,NNE,22,3.5,3.5,73,0.00,CLR,,0.03,WeatherDisplay:10.37,2013-01-21 01:25:00,
2013-01-20 20:30:00,73.6,64.4,30.01,NNE,22,2.3,2.3,73,0.00,CLR,,0.03,WeatherDisplay:10.37,2013-01-21 01:30:00,
2013-01-20 20:35:00,73.6,64.4,30.01,NE,45,3.5,3.5,73,0.00,CLR,,0.03,WeatherDisplay:10.37,2013-01-21 01:35:00,
2013-01-20 20:40:00,73.6,64.4,30.01,ENE,68,2.3,2.3,73,0.00,CLR,,0.03,WeatherDisplay:10.37,2013-01-21 01:40:00,
2013-01-20 20:45:00,73.6,64.4,30.01,NNE,22,3.5,3.5,73,0.00,CLR,,0.03,WeatherDisplay:10.37,2013-01-21 01:45:00,
2013-01-20 20:50:00,73.6,64.4,30.01,ENE,68,4.6,4.6,73,0.00,CLR,,0.03,WeatherDisplay:10.37,2013-01-21 01:50:00,
2013-01-20 20:55:00,73.6,64.4,30.01,NE,45,3.5,3.5,73,0.00,CLR,,0.03,WeatherDisplay:10.37,2013-01-21 01:55:00,
2013-01-20 21:00:00,73.6,64.4,30.01,NNE,22,2.3,2.3,73,0.00,CLR,,0.03,WeatherDisplay:10.37,2013-01-21 02:00:00,
2013-01-20 21:05:00,73.6,64.8,30.01,NE,45,5.8,5.8,74,0.00,CLR,,0.03,WeatherDisplay:10.37,2013-01-21 02:05:00,
2013-01-20 21:10:00,73.6,64.8,30.00,North,0,1.1,2.1,74,0.00,CLR,,0.03,WeatherDisplay:10.37,2013-01-21 02:10:00,
2013-01-20 21:15:00,73.6,64.8,30.00,NE,45,2.3,2.3,74,0.00,CLR,,0.03,WeatherDisplay:10.37,2013-01-21 02:15:00,
2013-01-20 21:20:00,73.8,65.0,30.00,NE,45,2.3,2.3,74,0.00,CLR,,0.03,WeatherDisplay:10.37,2013-01-21 02:20:00,
2013-01-20 21:25:00,73.8,65.0,30.00,NNE,22,1.1,1.3,74,0.00,CLR,,0.03,WeatherDisplay:10.37,2013-01-21 02:25:00,
2013-01-20 21:30:00,73.6,64.8,30.01,ENE,68,0.0,1.1,74,0.00,CLR,,0.03,WeatherDisplay:10.37,2013-01-21 02:30:00,
2013-01-20 21:35:00,73.4,65.0,30.01,NNE,22,3.5,3.5,75,0.00,CLR,,0.03,WeatherDisplay:10.37,2013-01-21 02:35:00,
2013-01-20 21:40:00,73.2,64.8,30.01,SE,135,1.1,1.5,75,0.00,CLR,,0.03,WeatherDisplay:10.37,2013-01-21 02:40:00,
2013-01-20 21:45:00,72.9,64.8,30.01,ENE,68,3.5,3.5,76,0.00,CLR,,0.03,WeatherDisplay:10.37,2013-01-21 02:45:00,
2013-01-20 21:50:00,72.9,64.8,30.01,ENE,68,2.3,2.3,76,0.00,CLR,,0.03,WeatherDisplay:10.37,2013-01-21 02:50:00,
2013-01-20 21:55:00,72.9,65.2,30.01,ENE,68,2.3,2.3,77,0.00,CLR,,0.03,WeatherDisplay:10.37,2013-01-21 02:55:00,
2013-01-20 22:00:00,72.5,64.9,30.01,NE,45,3.5,3.5,77,0.00,CLR,,0.03,WeatherDisplay:10.37,2013-01-21 03:00:00,
2013-01-20 22:05:00,72.3,64.7,30.01,NNW,338,3.5,3.5,77,0.00,CLR,,0.03,WeatherDisplay:10.37,2013-01-21 03:05:00,
2013-01-20 22:10:00,72.3,65.1,30.02,NNE,22,1.1,1.4,78,0.00,CLR,,0.03,WeatherDisplay:10.37,2013-01-21 03:10:00,
2013-01-20 22:15:00,72.1,64.9,30.02,ENE,68,3.5,3.5,78,0.00,CLR,,0.03,WeatherDisplay:10.37,2013-01-21 03:15:00,
2013-01-20 22:20:00,72.3,65.1,30.02,ENE,68,3.5,3.5,78,0.00,CLR,,0.03,WeatherDisplay:10.37,2013-01-21 03:20:00,
2013-01-20 22:25:00,72.1,64.9,30.02,ENE,68,5.8,5.8,78,0.00,CLR,,0.03,WeatherDisplay:10.37,2013-01-21 03:25:00,
2013-01-20 22:30:00,72.0,64.7,30.02,NNE,22,2.3,2.3,78,0.00,CLR,,0.03,WeatherDisplay:10.37,2013-01-21 03:30:00,
2013-01-20 22:35:00,72.0,64.7,30.02,ENE,68,4.6,4.6,78,0.00,CLR,,0.03,WeatherDisplay:10.37,2013-01-21 03:35:00,
2013-01-20 22:40:00,72.1,64.9,30.02,ENE,68,0.0,1.8,78,0.00,CLR,,0.03,WeatherDisplay:10.37,2013-01-21 03:40:00,
2013-01-20 22:45:00,72.0,64.7,30.02,ESE,112,2.3,2.3,78,0.00,CLR,,0.03,WeatherDisplay:10.37,2013-01-21 03:45:00,
2013-01-20 22:50:00,72.1,64.9,30.02,East,90,3.5,3.5,78,0.00,CLR,,0.03,WeatherDisplay:10.37,2013-01-21 03:50:00,
2013-01-20 22:55:00,72.1,64.9,30.02,East,90,2.3,2.3,78,0.00,CLR,,0.03,WeatherDisplay:10.37,2013-01-21 03:55:00,
2013-01-20 23:00:00,72.1,64.9,30.02,ENE,68,2.3,2.3,78,0.03,RA,,0.06,WeatherDisplay:10.37,2013-01-21 04:00:00,
2013-01-20 23:05:00,72.0,64.7,30.02,SSE,158,1.1,1.4,78,0.03,RA,,0.06,WeatherDisplay:10.37,2013-01-21 04:05:00,
2013-01-20 23:10:00,71.8,64.9,30.01,NNE,22,2.3,2.3,79,0.03,CLR,,0.06,WeatherDisplay:10.37,2013-01-21 04:10:00,
2013-01-20 23:15:00,71.8,64.9,30.01,NNE,22,0.0,1.4,79,0.03,CLR,,0.06,WeatherDisplay:10.37,2013-01-21 04:15:00,
2013-01-20 23:20:00,71.8,64.9,30.01,ESE,112,2.3,2.3,79,0.03,CLR,,0.06,WeatherDisplay:10.37,2013-01-21 04:20:00,
2013-01-20 23:25:00,71.8,64.9,30.01,SE,135,3.5,3.5,79,0.03,CLR,,0.06,WeatherDisplay:10.37,2013-01-21 04:25:00,
2013-01-20 23:30:00,71.6,65.1,30.02,SE,135,6.9,6.9,80,0.03,CLR,,0.06,WeatherDisplay:10.37,2013-01-21 04:30:00,
2013-01-20 23:35:00,71.6,65.5,30.02,East,90,4.6,4.6,81,0.03,CLR,,0.06,WeatherDisplay:10.37,2013-01-21 04:35:00,
2013-01-20 23:40:00,71.4,65.3,30.02,SSE,158,3.5,3.8,81,0.14,RA,,0.17,WeatherDisplay:10.37,2013-01-21 04:40:00,
2013-01-20 23:45:00,71.1,64.9,30.02,South,180,3.5,3.6,81,0.17,RA,,0.19,WeatherDisplay:10.37,2013-01-21 04:45:00,
2013-01-20 23:50:00,70.9,64.8,30.01,ENE,68,9.2,9.2,81,0.22,RA,,0.25,WeatherDisplay:10.37,2013-01-21 04:50:00,
2013-01-20 23:55:00,70.7,64.6,30.01,ESE,112,4.6,4.6,81,0.22,RA,,0.25,WeatherDisplay:10.37,2013-01-21 04:55:00,